This demonstration page uses our WeatherBlox Daily Observations layout. Learn more.

Left ArrowRight Arrow

34.16533, -84.80231

Hourly Observations for March 28, 2017

Temp ( °F °C ) Dew Point ( °F °C ) Humidity (%) Winds ( mph kmh ) Pressure ( in mb ) Visibility ( mi km ) Precip ( " mm )
12:53 am 00:53 Mostly Clear 60 15.6 58 14.4 93 93 SE 3 6 29.93 1014 10 16 0.00 0.00
1:53 am 01:53 Clear 59 15 58 14.4 96 96 Calm 29.93 1014 8 13 0.00 0.00
2:53 am 02:53 Cloudy with Nearby Thunderstorms 61 16.1 59 15 93 93 Calm 29.96 1015 10 16 0.00 0.00
3:22 am 03:22 Cloudy with Light Rain 60 15.6 59 15 96 96 NNE 6 9 30.00 1016 8 13 0.09 2.29
3:53 am 03:53 Cloudy with Rain 59 15 58 14.4 96 96 VRB 3 6 29.95 1014 6 10 0.22 5.59
4:02 am 04:02 Cloudy with Rain 59 15 58 14.4 96 96 VRB 5 7 29.97 1015 6 10 0.03 0.76
4:53 am 04:53 Cloudy 60 15.6 58 14.4 93 93 S 6 9 29.91 1013 10 16 0.04 1.02
5:53 am 05:53 Cloudy 60 15.6 59 15 96 96 Calm 29.92 1013 10 16 0.00 0.00
6:53 am 06:53 Cloudy 60 15.6 59 15 96 96 Calm 29.93 1014 8 13 0.01 0.25
7:53 am 07:53 Cloudy 59 15 58 14.4 96 96 Calm 29.95 1014 7 11 0.00 0.00
8:53 am 08:53 Mostly Cloudy 62 16.7 60 15.6 93 93 Calm 29.96 1015 10 16 0.00 0.00
9:53 am 09:53 Partly Cloudy 65 18.3 62 16.7 90 90 VRB 3 6 29.97 1015 10 16 0.00 0.00
10:26 am 10:26 Mostly Cloudy 68 20 63 17.2 84 84 VRB 3 6 30.00 1016 10 16 0.00 0.00
10:50 am 10:50 Cloudy 68 20 63 17 83 83 VRB 3 6 30.00 1016 10 16 0.00 0.00
10:53 am 10:53 Cloudy 68 20 62 16.7 81 81 Calm 29.98 1015 10 16 0.00 0.00
11:53 am 11:53 Cloudy 71 21.7 63 17.2 76 76 VRB 6 9 29.98 1015 10 16 0.00 0.00
12:53 pm 12:53 Mostly Cloudy 72 22.2 62 16.7 71 71 Calm 29.98 1015 10 16 0.00 0.00
1:53 pm 13:53 Cloudy 72 22.2 62 16.7 71 71 Calm 29.98 1015 10 16 0.00 0.00
2:15 pm 14:15 Mostly Cloudy 74 23.3 62 16.7 67 67 NNW 8 13 30.00 1016 10 16 0.00 0.00
2:53 pm 14:53 Mostly Cloudy 75 23.9 62 16.7 64 64 VRB 5 7 29.96 1014 10 16 0.00 0.00
3:53 pm 15:53 Mostly Sunny 77 25 59 15 54 54 VRB 3 6 29.94 1014 10 16 0.00 0.00
4:53 pm 16:53 Mostly Cloudy 77 25 59 15 54 54 NNW 8 13 29.93 1013 10 16 0.00 0.00
5:53 pm 17:53 Mostly Sunny 76 24.4 56 13.3 50 50 Calm 29.91 1013 10 16 0.00 0.00
6:53 pm 18:53 Sunny 75 23.9 56 13.3 52 52 Calm 29.92 1013 10 16 0.00 0.00
7:53 pm 19:53 Sunny 71 21.7 56 13.3 59 59 Calm 29.94 1014 10 16 0.00 0.00
8:53 pm 20:53 Clear 63 17.2 56 13.3 78 78 Calm 29.96 1014 10 16 0.00 0.00
9:53 pm 21:53 Clear 60 15.6 56 13.3 86 86 Calm 29.98 1015 10 16 0.00 0.00
10:53 pm 22:53 Clear 60 15.6 55 12.8 84 84 Calm 29.98 1015 10 16 0.00 0.00
11:53 pm 23:53 Clear 58 14.4 55 12.8 90 90 Calm 29.99 1016 10 16 0.00 0.00

Powered by AerisWeather